NANOZOND 1 (RS49S)

Last updated on Sun Apr 12 2026 00:03:15 GMT+0000 (Coordinated Universal Time)

1 57190U 23091AA 26101.51484494 .00870755 37533-3 15275-2 0 9994 2 57190 97.4938 184.9054 0009516 261.4923 98.5278 16.02064643155476

Satellite not in orbit

NANOZOND 1 (RS49S)